STARLINK-11560, 62917

Orbit data source: Space-Track

STARLINK-11560, 62917 is a payload satellite owned by SpaceX/Seattle (US) in LEO that was launched on Sat, 08 Feb 2025 UTC via an FALCON 9 launch vehicle from the Air Force Eastern Test Range (AFETR). Payload-class satellites include a variety of spacecraft equipped with specific instruments for various scientific and technological missions. These include communications satellites like Starlink; space stations such as the ISS; scientific satellites like the Hubble; Earth observation satellites from companies like Planet Labs, Umbra, and HawkEye 360; GPS; miniature CubeSats for education and research; and military/defense satellites.

Loading next visibility...
Identifier
62917, 2025-027L
Orbit
LEO
Country
Flag of USUS
Related business
Manufacturer
SpaceX/Seattle
Mission
Operational Commercial Communications
Bus & Motor
STARLINK V2MD, Unknown motor
Mass
960 kg wet, ~910 kg dry
Launch date (UTC)
2025-02-08 (10 months ago)
Launch vehicle
FALCON 9
Launch site
Air Force Eastern Test Range (AFETR)
Object type
Payload
Rocket body
Debris
Shape & HBR
Box + 2 Pan, 18.1 m
Radar Cross Section
36.964 m², Medium (>0.1 m² and < 1m²)

Expand to show TLE details & history
Last TLE update: 22 hours ago

TLE from 22 hours ago
0 STARLINK-11560
1 62917U 25027L   25347.15996956  .00403947  00000-0  29804-2 0  9994
2 62917  42.9982 149.2000 0001956 304.0144  56.0537 15.71004706 49543
Epoch: 2025-12-13T03:50Z
TLE epoch observation values (Epoch: 2025-12-13T03:50:21.369Z)
Latitude
-0.00009°
Longitude
9.51963°
Altitude
355.06 km
Speed
7.698 km/s
True Right ascension
09h 56m 47s
True Declination
0° 00' 00"
Sunlit
Object was in full shadow at epoch
Visualization orbit readout
Latitude
Unknown
Longitude
Unknown
Altitude
Unknown
Speed
Unknown
Apparent Right ascension
Unknown
Apparent Declination
Unknown
Sunlit
N/A
Visualization observer readout
Local Sidereal Time
23:56:44
Azimuth
Unknown
Elevation
Unknown
Doppler factor
Unknown
Orbital elements
Apogee altitude
359.324 km
Perigee altitude
356.689 km
Semi-major axis
6,736.143 km
Eccentricity
0.0002
Inclination
42.9982°
RAAN
149.2°
Arg. of periapsis
304.0144°
True anomaly
56.0723°
Mean anomaly
56.0537°
Eccentric anomaly
56.063°
Mean motion
3.92578 °/min
Orbital period
91.7 mins
BSTAR
0.0029804
Loading maneuver chart data...
Computing Atmospheric mass density...
Loading historical data...
Loading historical data...
Loading historical data...
Loading historical data...
Loading historical data...
Loading historical data...
Loading historical data...

Documentation

Showing up to 5 results
|